Baltimore Martin, MD

1:13 AM EDT on March 25, 2017 (GMT -0400)
Martin State

Weather History for KMTN - February, 2014

Change the Weather History Date:

Thursday, February 20, 2014

  Actual Average Record
Temperature  
Mean Temperature 38 °F -  
Max Temperature 51 °F 42 °F 62 °F (2016)
Min Temperature 26 °F 28 °F 3 °F (2015)
Degree Days  
Heating Degree Days 26    
Moisture  
Dew Point 31 °F    
Average Humidity 80    
Maximum Humidity 100    
Minimum Humidity 47    
Precipitation  
Precipitation 0.00 in - - ()
Sea Level Pressure  
Sea Level Pressure 30.16 in    
Wind  
Wind Speed 2 mph (SSE)    
Max Wind Speed 9 mph    
Max Gust Speed -    
Visibility 10 miles    
Events      
Averages and records for this station are not official NWS values.
T = Trace of Precipitation, MM = Missing Value Source: NWS Daily Summary

Daily Weather History Graph

Daily Weather History Graph

Search for Another Location

Airport or City:

Trip Planner

Search our weather history database for the weather conditions in past years. The results will help you decide how hot, cold, wet, or windy it might be!

Date:

Astronomy

Feb. 20, 2014 Rise Set
Actual Time 6:51 AM EST 5:48 PM EST
Civil Twilight 6:23 AM EST 6:15 PM EST
Nautical Twilight 5:52 AM EST 6:46 PM EST
Astronomical Twilight 5:21 AM EST 7:17 PM EST
Moon 11:38 PM EST (2/20) 9:34 AM EST (2/20)
Length of Visible Light 11h 51m
Length of Day
10h 57m
Waning Gibbous, 71% of the Moon is Illuminated
Feb 20
Waning Gibbous
Feb 22
Last Quarter
Mar 1
New
Mar 8
First Quarter
Mar 16
Full

Hourly Weather History & Observations

Time (EST) Temp. Windchill Dew Point Humidity Pressure Visibility Wind Dir Wind Speed Gust Speed Precip Events Conditions
12:18 AM 37.4 °F - 30.2 °F 75% 30.17 in 10.0 mi Calm Calm - N/A   Clear
12:39 AM 35.6 °F 32.8 °F 28.4 °F 75% 30.18 in 10.0 mi South 3.5 mph - N/A   Clear
12:57 AM 35.6 °F 30.7 °F 30.2 °F 81% 30.17 in 10.0 mi West 5.8 mph - N/A   Clear
1:18 AM 35.6 °F - 30.2 °F 81% 30.18 in 10.0 mi Calm Calm - N/A   Clear
1:39 AM 33.8 °F 29.6 °F 28.4 °F 81% 30.19 in 10.0 mi SSW 4.6 mph - N/A   Clear
1:57 AM 32.0 °F 27.5 °F 30.2 °F 93% 30.20 in 10.0 mi WSW 4.6 mph - N/A   Clear
2:18 AM 32.0 °F - 28.4 °F 87% 30.20 in 10.0 mi Calm Calm - N/A   Clear
2:39 AM 32.0 °F - 28.4 °F 87% 30.20 in 10.0 mi Calm Calm - N/A   Clear
2:57 AM 32.0 °F - 28.4 °F 87% 30.20 in 10.0 mi Calm Calm - N/A   Clear
3:18 AM 30.2 °F - 28.4 °F 93% 30.20 in 10.0 mi Calm Calm - N/A   Clear
3:39 AM 30.2 °F - 26.6 °F 86% 30.20 in 10.0 mi Calm Calm - N/A   Clear
3:57 AM 28.4 °F - 26.6 °F 93% 30.21 in 7.0 mi Calm Calm - N/A   Clear
4:18 AM 30.2 °F - 26.6 °F 86% 30.21 in 7.0 mi Calm Calm - N/A   Clear
4:39 AM 30.2 °F - 28.4 °F 93% 30.21 in 10.0 mi Calm Calm - N/A   Clear
4:57 AM 30.2 °F 26.7 °F 28.4 °F 93% 30.21 in 10.0 mi North 3.5 mph - N/A   Clear
5:18 AM 30.2 °F - 28.4 °F 93% 30.23 in 10.0 mi Calm Calm - N/A   Clear
5:27 AM 30.2 °F - 28.4 °F 93% 30.23 in 10.0 mi Calm Calm - N/A   Clear
6:45 AM 26.6 °F - 24.8 °F 93% 30.26 in 10.0 mi Calm Calm - N/A   Partly Cloudy
7:50 AM 30.2 °F - 30.2 °F 100% 30.29 in 10.0 mi Calm Calm - N/A   Partly Cloudy
8:50 AM 39.2 °F - 35.6 °F 87% 30.29 in 10.0 mi Calm Calm - N/A   Scattered Clouds
9:55 AM 42.8 °F - 33.8 °F 70% 30.27 in 10.0 mi Calm Calm - N/A   Scattered Clouds
10:55 AM 46.4 °F - 33.8 °F 62% 30.27 in 10.0 mi Calm Calm - N/A   Scattered Clouds
11:45 AM 51.8 °F - 33.8 °F 50% 30.25 in 10.0 mi Calm Calm - N/A   Scattered Clouds
12:45 PM 51.8 °F - 32.0 °F 47% 30.21 in 10.0 mi SE 8.1 mph - N/A   Scattered Clouds
1:50 PM 51.8 °F - 32.0 °F 47% 30.17 in 10.0 mi SE 9.2 mph - N/A   Scattered Clouds
2:50 PM 46.4 °F 41.9 °F 30.2 °F 53% 30.15 in 10.0 mi SE 9.2 mph - N/A   Overcast
3:45 PM 46.4 °F 42.4 °F 28.4 °F 50% 30.12 in 10.0 mi SSE 8.1 mph - N/A   Overcast
4:55 PM 44.6 °F 40.7 °F 30.2 °F 57% 30.10 in 10.0 mi SE 6.9 mph - N/A   Overcast
5:45 PM 44.6 °F 40.7 °F 32.0 °F 61% 30.10 in 10.0 mi ESE 6.9 mph - N/A   Overcast
6:45 PM 42.8 °F 41.1 °F 32.0 °F 66% 30.09 in 10.0 mi East 3.5 mph - N/A   Overcast
7:45 PM 39.2 °F - 33.8 °F 81% 30.08 in 10.0 mi Calm Calm - N/A   Overcast
8:50 PM 39.2 °F - 33.8 °F 81% 30.07 in 10.0 mi Calm Calm - N/A   Overcast
9:45 PM 37.4 °F - 33.8 °F 87% 30.04 in 10.0 mi Calm Calm - N/A   Overcast
10:00 PM 37.4 °F - 32.0 °F 81% 30.03 in 10.0 mi Calm Calm - N/A   Clear
10:21 PM 35.6 °F - 32.0 °F 87% 30.02 in 10.0 mi Calm Calm - N/A   Clear
10:39 PM 35.6 °F - 33.8 °F 93% 30.02 in 10.0 mi Calm Calm - N/A   Clear
11:00 PM 37.4 °F - 33.8 °F 87% 30.01 in 10.0 mi Calm Calm - N/A   Clear
11:21 PM 35.6 °F - 33.8 °F 93% 30.00 in 10.0 mi Calm Calm - N/A   Clear
11:39 PM 35.6 °F - 33.8 °F 93% 29.99 in 10.0 mi Calm Calm - N/A   Clear